Hourly Data Report for April 01, 2018

KENORA A
ONTARIO
Current Station Operator: NAVCAN

49°47'18.000" N
94°21'47.000" W
409.70 m
6034076
71850
YQK

Download Data

Hourly Data (April 2018)
Hourly Data Report for April 1, 2018
TIME
LST
Temp Definition
°C
Dew Point Definition
°C
Rel Hum Definition
%
Precip. Amount Definition
mm

Wind Dir Definition
10's deg

Wind Spd Definition
km/h
Visibility Definition
km
Stn Press Definition
kPa
Hmdx Definition


Wind Chill Definition


Weather Definition


00:00 -14.3 -18.1 73   24 14 24.1 96.71   -22 Mainly Clear
01:00 -14.7 -17.9 76   24 14 24.1 96.67   -22 LegendNANA
02:00 -14.9 -17.7 79   24 14 24.1 96.63   -22 LegendNANA
03:00 -14.9 -17.6 80   24 18 24.1 96.57   -24 Clear
04:00 -14.8 -17.4 81   24 17 24.1 96.52   -23 LegendNANA
05:00 -14.5 -17.2 80   24 20 24.1 96.48   -24 LegendNANA
06:00 -14.0 -16.8 79   25 19 24.1 96.46   -23 Mostly Cloudy
07:00 -13.5 -16.4 79   24 19 24.1 96.47   -22 LegendNANA
08:00 -12.1 -15.9 73   25 19 24.1 96.45   -20 LegendNANA
09:00 -9.7 -15.4 63   25 26 24.1 96.42   -19 Mainly Clear
10:00 -8.1 -14.2 62   23 25 24.1 96.40   -16 LegendNANA
11:00 -6.5 -13.6 58   24 21 24.1 96.38   -14 LegendNANA
12:00 -5.0 -12.9 54   24 28 24.1 96.30   -13 Mostly Cloudy
13:00 -4.0 -14.3 45   26 29 24.1 96.25   -12 LegendNANA
14:00 -3.3 -14.1 43   28 26 24.1 96.21   -10 LegendNANA
15:00 -3.8 -14.3 44   29 29 24.1 96.18   -11 Mostly Cloudy
16:00 -3.7 -15.0 41   27 28 24.1 96.16   -11 LegendNANA
17:00 -4.1 -15.1 42   29 23 24.1 96.15   -11 LegendNANA
18:00 -4.9 -14.9 46   30 26 24.1 96.17   -12 Mostly Cloudy
19:00 -5.8 -15.1 48   29 16 24.1 96.21   -12 LegendNANA
20:00 -7.2 -13.6 61   33 13 24.1 96.28   -13 LegendNANA
21:00 -8.3 -13.5 66   34 17 24.1 96.34   -15 Mostly Cloudy
22:00 -9.6 -13.8 72   36 9 24.1 96.34   -14 LegendNANA
23:00 -10.6 -15.8 65   35 14 19.3 96.38   -17 Snow

Notes on Data Quality.

Legend

  • E = Estimated
  • M = Missing
  • NA = Not Available*
  • [empty] = Indicates an unobserved value
Date modified: